Miscellaneous Local Product
Issued by NWS Hastings, NE

Home | Current Version | Previous Version | Text Only | Print | Product List | Glossary Off
Versions: 1 2 3 4 5 6 7 8 9 10 11 12 13 14 15 16 17 18 19 20 21 22 23 24 25 26 27 28 29 30 31 32 33 34 35 36 37 38 39 40 41 42 43 44 45 46 47 48 49 50

000
AXUS43 KGID 192102
MISGRI

GID CWA HOURLY WEATHER ROUNDUP
NATIONAL WEATHER SERVICE HASTINGS NE
300 PM CST SUN NOV 19 2017

NOTE: "FAIR" INDICATES FEW OR NO CLOUDS BELOW 12,000 FEET WITH NO
SIGNIFICANT WEATHER AND/OR OBSTRUCTIONS TO VISIBILITY.

...SOUTH CENTRAL NEBRASKA...

CITY           SKY/WX    TMP DP  RH WIND       PRES   REMARKS
GRAND ISLAND   SUNNY     56  25  30 SW18      30.00F
KEARNEY        SUNNY     57  22  25 SW14      30.00F
HASTINGS       SUNNY     57  21  24 SW12G21   30.01F
ORD            SUNNY     57  21  24 W16       29.94F
YORK           SUNNY     57  23  26 W15G24    30.02F
AURORA         SUNNY     56  23  27 SW16G24   30.00F
LEXINGTON      SUNNY     58  23  25 SW12      29.99F
HOLDREGE       SUNNY     58  24  27 SW13G21   30.00F
HEBRON         SUNNY     57  22  25 SW10G18   30.05F

...NEBRASKA PANHANDLE...

CITY           SKY/WX    TMP DP  RH WIND       PRES   REMARKS
CHADRON        CLOUDY    58  16  19 W14       29.88F
ALLIANCE       SUNNY     57  13  17 W14       29.92F
SCOTTSBLUFF    CLOUDY    59   5  11 W23G32    29.93F
SIDNEY         SUNNY     60  15  17 W9        29.98F

...WESTERN AND NORTH CENTRAL NEBRASKA...

CITY           SKY/WX    TMP DP  RH WIND       PRES   REMARKS
VALENTINE      CLOUDY    59  18  20 SW13      29.88F
AINSWORTH      SUNNY     57  22  26 SW10      29.90F
ONEILL         SUNNY     57  25  29 SW10G17   29.92F
BROKEN BOW     SUNNY     58  23  26 W16G24    29.95F
IMPERIAL       CLOUDY    61  17  18 SW8       29.98F
NORTH PLATTE   SUNNY     59  22  24 W9        29.96F
MCCOOK         SUNNY     61  20  20 SW14G22   29.99F

...EASTERN NEBRASKA...

CITY           SKY/WX    TMP DP  RH WIND       PRES   REMARKS
NORFOLK        SUNNY     55  23  28 SW15      29.96S
SO SIOUX CITY  SUNNY     54  24  31 SW14      29.96F
TEKAMAH        SUNNY     54  26  34 SW20      29.99F
COLUMBUS       SUNNY     56  25  30 SW12G25   29.99F
ALBION         SUNNY     56  23  27 SW13G20   29.96F
OMAHA EPPLEY   MOSUNNY   54  26  34 SW10      30.02F
OFFUTT AFB     SUNNY     55  25  31 SW12G20   30.02F
MILLARD        SUNNY     56  26  31 SW10G16   30.01F
LINCOLN        SUNNY     56  23  27 SW17      30.03F
NEBRASKA CITY  SUNNY     55  26  32 SW21      30.05F
BEATRICE       SUNNY     56  23  28 SW16      30.05F
FALLS CITY     SUNNY     55  26  32 SW15      30.07F

...NORTHERN KANSAS...

CITY           SKY/WX    TMP DP  RH WIND       PRES   REMARKS
GOODLAND       CLOUDY    60  16  18 SW12      30.01F
HILL CITY      CLOUDY    58  22  24 SW10      30.04F
NORTON         CLEAR     59  12  15 S14       30.00F
PHILLIPSBURG   SUNNY     61  18  18 S13G20    30.02F
SMITH CENTER   SUNNY     59  19  21 S16G22    30.03F
HAYS           CLOUDY    59  20  22 SW16      30.05F
RUSSELL        SUNNY     60  19  20 SW18      30.05F
CONCORDIA      SUNNY     58  20  22 SW18G24   30.06F
SALINA         SUNNY     62  21  20 SW14      30.10F
TOPEKA         SUNNY     58  25  28 SW13      30.12F



USA.gov is the U.S. government's official web portal to all federal, state and local government web resources and services.